Weather History for MMAA - March, 2013

Change the Weather History Date:

Friday, March 29, 2013

  Actual Average Record
Temperature  
Mean Temperature 83 °F -  
Max Temperature 92 °F 89 °F 93 °F (2014)
Min Temperature 74 °F 72 °F 66 °F (1999)
Cooling Degree Days 18    
Growing Degree Days 33 (Base 50)    
Moisture  
Dew Point 74 °F    
Average Humidity 73    
Maximum Humidity 85    
Minimum Humidity 49    
Precipitation  
Precipitation 0.00 in 0.01 in - ()
Sea Level Pressure  
Sea Level Pressure 29.91 in    
Wind  
Wind Speed 3 mph ()    
Max Wind Speed 14 mph    
Max Gust Speed -    
Visibility 7.8 miles    
Events      
Averages and records for this station are not official NWS values.
T = Trace of Precipitation, MM = Missing Value Source: Averaged Metar Reports

Daily Weather History Graph

Daily Weather History Graph

Search for Another Location

Airport or City:

Trip Planner

Search our weather history database for the weather conditions in past years. The results will help you decide how hot, cold, wet, or windy it might be!

Date:

Astronomy

Mar. 29, 2013 Rise Set
Actual Time 6:35 AM CST 6:51 PM CST
Civil Twilight 6:14 AM CST 7:13 PM CST
Nautical Twilight 5:49 AM CST 7:38 PM CST
Astronomical Twilight 5:23 AM CST 8:03 PM CST
Moon 9:22 PM CST (3/29) 8:12 AM CST (3/29)
Length of Visible Light 12h 58m
Length of Day
12h 15m
Waning Gibbous, 93% of the Moon is Illuminated
Mar 29
Waning Gibbous
Apr 2
Last Quarter
Apr 10
New
Apr 18
First Quarter
Apr 25
Full

Hourly Weather History & Observations

Time (CST) Temp. Heat Index Dew Point Humidity Pressure Visibility Wind Dir Wind Speed Gust Speed Precip Events Conditions
12:00 AM 80 °F - 74 °F 76% 29.95 in 6 mi WNW 2.2 mph - -   Clear
12:45 AM 80.6 °F 85.4 °F 73.4 °F 79% 29.94 in 8.0 mi Calm Calm - N/A   Scattered Clouds
1:45 AM 80.6 °F 85.4 °F 73.4 °F 79% 29.93 in 8.0 mi Calm Calm - N/A   Scattered Clouds
2:45 AM 78 °F - 73 °F 80% 29.91 in 6 mi NNE 2.2 mph - -  
2:45 AM 80.6 °F 85.4 °F 73.4 °F 79% 29.95 in 8.0 mi Calm Calm - N/A   Scattered Clouds
3:56 AM 80.6 °F 85.4 °F 73.4 °F 79% 29.91 in 8.0 mi Calm Calm - N/A   Scattered Clouds
4:45 AM - - - N/A% 29.91 in 8.0 mi Calm Calm - N/A   Scattered Clouds
5:45 AM 75 °F - 71 °F 85% 29.91 in 6 mi NNW 2.2 mph - -   Clear
5:45 AM 78.8 °F - 71.6 °F 78% 29.95 in 8.0 mi Calm Calm - N/A   Scattered Clouds
6:42 AM 78.8 °F - 71.6 °F 78% 29.92 in 7.0 mi Calm Calm - N/A   Clear
7:45 AM 77.0 °F - 71.6 °F 83% 29.94 in 7.0 mi Calm Calm - N/A   Scattered Clouds
8:48 AM 80.6 °F 84.6 °F 71.6 °F 74% 29.98 in 7.0 mi Calm Calm - N/A   Scattered Clouds
8:50 AM 82 °F - 71 °F 62% 29.96 in 12 mi North 2.2 mph - -  
9:47 AM 82.4 °F 88.2 °F 73.4 °F 74% 29.95 in 7.0 mi Calm Calm - N/A   Clear
10:42 AM 86.0 °F 93.4 °F 73.4 °F 66% 29.96 in 7.0 mi Calm Calm - N/A   Clear
11:46 AM 86.0 °F 95.1 °F 75.2 °F 70% 29.85 in 7.0 mi SW 9.2 mph - N/A   Clear
11:50 AM 88 °F - 76 °F 61% 29.94 in 12 mi SW 6.7 mph - -  
12:44 PM 86.0 °F 95.1 °F 75.2 °F 70% 29.90 in 7.0 mi WSW 11.5 mph - N/A   Clear
1:43 PM 87.8 °F 97.6 °F 75.2 °F 66% 29.87 in 7.0 mi SW 11.5 mph - N/A   Clear
2:43 PM 87.8 °F 97.6 °F 75.2 °F 66% 29.87 in 7.0 mi WSW 13.8 mph - N/A   Clear
2:45 PM 90 °F - 73 °F 49% 29.85 in 12 mi WSW 8.9 mph - -   Clear
3:45 PM 89.6 °F 99.8 °F 75.2 °F 62% 29.83 in 7.0 mi WSW 11.5 mph - N/A   Clear
4:42 PM 87.8 °F 97.6 °F 75.2 °F 66% 29.83 in 7.0 mi WSW 9.2 mph - N/A   Clear
5:42 PM 87.8 °F 99.7 °F 77.0 °F 70% 29.84 in 7.0 mi WSW 11.5 mph - N/A   Partly Cloudy
5:50 PM 85 °F - 76 °F 68% 29.86 in 11 mi West 8.9 mph - -   Scattered Clouds
6:45 PM 86.0 °F 95.1 °F 75.2 °F 70% 29.85 in 7.0 mi WSW 9.2 mph - N/A   Partly Cloudy
7:45 PM 84.2 °F 92.3 °F 75.2 °F 74% 29.87 in 7.0 mi WSW 5.8 mph - N/A   Partly Cloudy
8:45 PM 84.2 °F 94.1 °F 77.0 °F 79% 29.85 in 7.0 mi Calm Calm - N/A   Clear
8:50 PM 81 °F - 77 °F 83% 29.92 in 12 mi West 2.2 mph - -  
9:45 PM 84.2 °F 94.1 °F 77.0 °F 79% 29.93 in 7.0 mi Calm Calm - N/A   Clear
10:59 PM 84.2 °F 94.1 °F 77.0 °F 79% 29.93 in 7.0 mi Calm Calm - N/A   Clear
11:45 PM 82.4 °F 89.5 °F 75.2 °F 79% 29.92 in 7.0 mi Calm Calm - N/A   Clear